FENGYUN 3D

Last updated on Wed Sep 23 2026 00:03:10 GMT+0000 (Coordinated Universal Time)

1 43010U 17072A 26265.61340662 .00000065 00000+0 52361-4 0 9995 2 43010 99.0255 241.8515 0002305 109.9266 250.2158 14.19756545458815
UTC large
Height (km)
Speed (km/s)
/
Latitude / Longitude
Inclination (degrees)
Orbital Period (minutes)
Azimuth
Elevation
Range (km)
Doppler Factor

Next 0 passes for location: London (51.5072 / 0.1276)

No passes found over London.
FENGYUN 3D